Location: Newark
(47.5783°N, 6.7622°E)
Time: 06:54:59
(UTC+00:00)

Explorer 7 - All Passes

Search period start: 25 February 2020 00:00
Search period end: 06 March 2020 00:00
Orbit: 485 x 679 km, 50.3° (Epoch: 24 February)

Date Brightness Start Highest point End Pass type
(mag) Time Alt. Az. Time Alt. Az. Time Alt. Az.
25 Feb - 10:05:21 10° SSW 10:09:39 34° SE 10:13:47 10° E daylight
25 Feb - 11:45:19 10° WSW 11:50:01 84° NNW 11:54:28 10° ENE daylight
25 Feb - 13:26:22 10° W 13:30:52 60° N 13:35:05 10° E daylight
25 Feb - 15:07:14 10° WNW 15:11:37 82° SSW 15:15:42 10° ESE daylight
25 Feb - 16:48:25 10° W 16:51:40 22° SW 16:54:47 10° S daylight
26 Feb - 08:32:41 10° SSE 08:34:36 12° SE 08:36:28 10° ESE daylight
26 Feb - 10:09:50 10° SW 10:14:26 48° SSE 10:18:50 10° ENE daylight
26 Feb - 11:50:18 10° W 11:54:59 71° NNW 11:59:24 10° ENE daylight
26 Feb - 13:31:22 10° WNW 13:35:53 63° N 13:40:05 10° E daylight
26 Feb - 15:12:11 10° WNW 15:16:30 61° SSW 15:20:31 10° SE daylight
26 Feb - 16:54:01 10° W 16:56:18 14° SW 16:58:32 10° SSW daylight
27 Feb - 08:35:52 10° S 08:39:13 19° SE 08:42:28 10° E daylight
27 Feb - 10:14:31 10° SW 10:19:16 65° SSE 10:23:48 10° ENE daylight
27 Feb - 11:55:19 10° W 11:59:58 64° N 12:04:21 10° ENE daylight
27 Feb - 13:36:20 10° WNW 13:40:52 72° NNE 13:45:05 10° E daylight
27 Feb - 15:17:10 10° WNW 15:21:18 43° SSW 15:25:11 10° SE daylight
28 Feb - 08:39:49 10° SSW 08:43:54 27° SE 08:47:51 10° E daylight
28 Feb - 10:19:21 10° WSW 10:24:09 84° SSE 10:28:44 10° ENE daylight
28 Feb - 12:00:20 10° W 12:04:58 60° N 12:09:20 10° E daylight
28 Feb - 13:41:16 10° WNW 13:45:49 85° NNE 13:50:03 10° ESE daylight
28 Feb - 15:22:15 10° W 15:26:03 30° SW 15:29:38 10° SSE daylight
29 Feb - 08:44:08 10° SSW 08:48:38 38° SE 08:52:59 10° ENE daylight
29 Feb - 10:24:16 10° WSW 10:29:05 80° NNW 10:33:39 10° ENE daylight
29 Feb - 12:05:20 10° WNW 12:09:58 61° N 12:14:20 10° E daylight
29 Feb - 13:46:12 10° WNW 13:50:43 76° SSW 13:54:56 10° ESE daylight
29 Feb - 15:27:32 10° W 15:30:43 20° SW 15:33:46 10° S daylight
01 Mar - 07:10:55 10° SSE 07:13:31 14° SE 07:16:06 10° E daylight
01 Mar - 08:48:42 10° SW 08:53:26 53° SSE 08:58:00 10° ENE daylight
01 Mar - 10:29:16 10° W 10:34:03 69° N 10:38:36 10° ENE daylight
01 Mar - 12:10:19 10° WNW 12:14:58 66° N 12:19:20 10° E daylight
01 Mar - 13:51:09 10° WNW 13:55:34 56° SSW 13:59:42 10° SE daylight
01 Mar - 15:33:16 10° WSW 15:35:19 13° SW 15:37:19 10° SSW daylight
02 Mar - 07:14:28 10° S 07:18:09 22° SE 07:21:47 10° E daylight
02 Mar - 08:53:25 10° WSW 08:58:16 71° SSE 09:02:57 10° ENE daylight
02 Mar - 10:34:17 10° W 10:39:02 63° N 10:43:33 10° ENE daylight
02 Mar - 12:15:17 10° WNW 12:19:57 76° NNE 12:24:20 10° E daylight
02 Mar - 13:56:10 10° WNW 14:00:22 39° SW 14:04:18 10° SE daylight
03 Mar - 07:18:33 10° SSW 07:22:50 31° SE 07:27:03 10° E daylight
03 Mar - 08:58:17 10° WSW 09:03:11 89° SE 09:07:52 10° ENE daylight
03 Mar - 10:39:18 10° W 10:44:03 61° N 10:48:32 10° E daylight
03 Mar - 12:20:13 10° WNW 12:24:53 89° SW 12:29:16 10° ESE daylight
03 Mar - 14:01:17 10° W 14:05:05 27° SW 14:08:41 10° SSE daylight
04 Mar - 05:46:49 10° SE 05:47:51 11° SE 05:48:53 10° ESE daylight
04 Mar - 07:22:57 10° SW 07:27:35 43° SE 07:32:07 10° ENE daylight
04 Mar - 09:03:14 10° WSW 09:08:06 76° NNW 09:12:48 10° ENE daylight
04 Mar - 10:44:18 10° WNW 10:49:03 63° N 10:53:32 10° E daylight
04 Mar - 12:25:09 10° WNW 12:29:47 70° SSW 12:34:07 10° ESE daylight
04 Mar - 14:06:37 10° W 14:09:44 19° SW 14:12:42 10° S daylight
05 Mar - 05:49:22 10° S 05:52:26 17° SE 05:55:29 10° E daylight
05 Mar - 07:27:34 10° SW 07:32:24 59° SSE 07:37:07 10° ENE daylight
05 Mar - 09:08:13 10° W 09:13:05 67° N 09:17:44 10° ENE daylight
05 Mar - 10:49:16 10° WNW 10:54:02 69° N 10:58:32 10° E daylight
05 Mar - 12:30:06 10° WNW 12:34:37 51° SSW 12:38:50 10° SE daylight
05 Mar - 14:12:34 10° WSW 14:14:18 12° SW 14:15:59 10° SSW daylight
